Tracking 25612 objects as of 20-May-2022
HD Live streaming from Space Station
objects crossing your sky now

COSMOS 2251 DEB

Track COSMOS 2251 DEB now!
10-day predictions


NORAD ID: 34567
Int'l Code: 1993-036VD
Perigee: 770.9 km
Apogee: 880.4 km
Inclination: 74.0 °
Period: 101.3 minutes
Semi major axis: 7196 km
RCS: 0.051 m2 (small)
Launch date: June 16, 1993
Source: Commonwealth of Independent States (former USSR) (CIS)
Launch site: PLESETSK MISSILE AND SPACE COMPLEX (PKMTR)

Note: This is SATELLITE DEBRIS
aabbcc
Your satellite tracking list
Your tracking list is empty




NASA's NSSDC Master Catalog

Two Line Element Set (TLE):
1 34567U 93036VD  22139.84682638  .00000532  00000-0  24479-3 0  9997
2 34567  74.0423 337.3851 0076084   3.6526  10.1427 14.22016681686932
Source of the keplerian elements: AFSPC